Bryce, UT

11:34 PM MDT on August 23, 2016 (GMT -0600)
Bryce Canyon

Weather History for KBCE - October, 2012

Change the Weather History Date:

Tuesday, October 16, 2012

  Actual Average Record
Temperature  
Mean Temperature 50 °F -  
Max Temperature 69 °F 56 °F 73 °F (1991)
Min Temperature 30 °F 25 °F 14 °F (1984)
Degree Days  
Heating Degree Days 16    
Moisture  
Dew Point 30 °F    
Average Humidity 50    
Maximum Humidity 82    
Minimum Humidity 23    
Precipitation  
Precipitation 0.00 in - - ()
Sea Level Pressure  
Sea Level Pressure 29.89 in    
Wind  
Wind Speed 10 mph (WNW)    
Max Wind Speed 17 mph    
Max Gust Speed 25 mph    
Visibility 10 miles    
Events      
Averages and records for this station are not official NWS values.
T = Trace of Precipitation, MM = Missing Value Source: NWS Daily Summary

Daily Weather History Graph

Daily Weather History Graph

Search for Another Location

Airport or City:

Trip Planner

Search our weather history database for the weather conditions in past years. The results will help you decide how hot, cold, wet, or windy it might be!

Date:

Astronomy

Oct. 16, 2012 Rise Set
Actual Time 7:38 AM MDT 6:49 PM MDT
Civil Twilight 7:11 AM MDT 7:15 PM MDT
Nautical Twilight 6:41 AM MDT 7:45 PM MDT
Astronomical Twilight 6:11 AM MDT 8:16 PM MDT
Moon 9:03 AM MDT (10/16) 7:39 PM MDT (10/16)
Length of Visible Light 12h 03m
Length of Day
11h 10m
New Moon, 2% of the Moon is Illuminated
Oct 16
New Moon
Oct 21
First Quarter
Oct 29
Full
Nov 6
Last Quarter
Nov 13
New

Hourly Weather History & Observations

Time (MDT) Temp. Windchill Dew Point Humidity Pressure Visibility Wind Dir Wind Speed Gust Speed Precip Events Conditions
12:53 AM 35.1 °F 27.9 °F 27.0 °F 72% 30.00 in 10.0 mi West 9.2 mph - N/A   Clear
1:53 AM 35.1 °F 28.6 °F 27.0 °F 72% 29.99 in 10.0 mi West 8.1 mph - N/A   Clear
2:53 AM 34.0 °F 26.6 °F 26.1 °F 73% 29.98 in 10.0 mi West 9.2 mph - N/A   Clear
3:53 AM 33.1 °F 24.9 °F 27.0 °F 78% 29.97 in 10.0 mi West 10.4 mph - N/A   Clear
4:53 AM 32.0 °F 24.2 °F 26.1 °F 79% 29.97 in 10.0 mi West 9.2 mph - N/A   Clear
6:53 AM 30.9 °F 23.5 °F 26.1 °F 82% 30.02 in 10.0 mi West 8.1 mph - N/A   Clear
7:53 AM 32.0 °F 24.2 °F 25.0 °F 75% 30.04 in 10.0 mi WNW 9.2 mph - N/A   Clear
8:53 AM 39.0 °F 34.0 °F 27.0 °F 62% 30.01 in 10.0 mi West 6.9 mph - N/A   Clear
9:53 AM 52.0 °F - 32.0 °F 47% 29.98 in 10.0 mi WNW 5.8 mph - N/A   Clear
10:53 AM 61.0 °F - 27.0 °F 27% 29.93 in 10.0 mi NW 16.1 mph 21.9 mph N/A   Clear
11:53 AM 62.1 °F - 28.9 °F 29% 29.91 in 10.0 mi NW 15.0 mph 23.0 mph N/A   Clear
12:53 PM 64.0 °F - 28.9 °F 27% 29.90 in 10.0 mi WNW 12.7 mph - N/A   Clear
1:53 PM 66.0 °F - 27.0 °F 23% 29.85 in 10.0 mi West 9.2 mph - N/A   Clear
2:53 PM 66.9 °F - 28.9 °F 24% 29.81 in 10.0 mi WNW 9.2 mph - N/A   Clear
3:53 PM 69.1 °F - 30.0 °F 23% 29.78 in 10.0 mi West 15.0 mph 25.3 mph N/A   Clear
4:53 PM 68.0 °F - 32.0 °F 26% 29.77 in 10.0 mi WNW 16.1 mph 25.3 mph N/A   Clear
5:53 PM 64.9 °F - 30.9 °F 28% 29.77 in 10.0 mi WNW 17.3 mph - N/A   Clear
6:53 PM 60.1 °F - 32.0 °F 35% 29.80 in 10.0 mi WNW 16.1 mph - N/A   Clear
7:53 PM 55.0 °F - 33.1 °F 43% 29.83 in 10.0 mi West 9.2 mph - N/A   Clear
8:53 PM 54.0 °F - 33.1 °F 45% 29.81 in 10.0 mi WNW 9.2 mph - N/A   Clear
9:53 PM 48.9 °F - 33.1 °F 54% 29.80 in 10.0 mi Variable 4.6 mph - N/A   Clear
10:53 PM 53.1 °F - 36.0 °F 52% 29.75 in 10.0 mi WNW 16.1 mph 21.9 mph N/A   Clear
11:53 PM 50.0 °F - 37.9 °F 63% 29.80 in 10.0 mi WNW 12.7 mph - N/A   Clear